Tenerife > ESTACION METEOROLÓGICA La Montañeta - Garachico

DATOS ACTUALES Online

Ultima actulizacion 20 minutos

17.4 ºC

Temperatura

92

Humedad (%)

909.93

Presión (mb)

3.8

Precipitación (mm)

7.3 S

Viento (Km/h)

DATOS DIARIOS

Temperatura últimas 24 horas (ºC)

Humedad últimas 24 horas (%)

Presión atmosférica últimas 24 horas (mb)

Precipitaciones últimas 23 horas (mm)

Viento últimas 24 horas (Km/h)

Hora Temperatura (°C) ºC Precipitación (mm) mm Presión (mb) mb Humedad (%) % Viento (Km/h) km/h
24 - 22:00 17 0 912 76 8 O
24 - 23:00 16.5 0 912 79 5.3 O
25 - 00:00 15.6 0 913 86 7.8 O
25 - 01:00 15.9 0 912 85 13.1 NO
25 - 02:00 15.9 0 912 86 3.7 SW
25 - 03:00 15.1 0 911 83 11.4 SO
25 - 04:00 14.8 0.2 911 84 7.4 SO
25 - 05:00 14.4 0.3 910 89 9.4 S
25 - 06:00 15.1 0.4 910 90 9.8 SO
25 - 07:00 15 0.6 911 90 9.5 SO
25 - 08:00 15.6 0.6 911 91 9.7 SO
25 - 09:00 16.2 0.8 911 91 5.1 S
25 - 10:00 16.9 1.1 912 91 2.5 O
25 - 11:00 16.9 1.4 912 91 4.9 NW
25 - 12:00 16.8 1.7 912 91 4.6 N
25 - 13:00 17.6 2 912 92 7.1 NO
25 - 14:00 17.6 2.2 911 92 11.2 NO
25 - 15:00 17.3 2.5 910 93 16.6 NO
25 - 16:00 17.6 2.6 910 93 9.1 NO
25 - 17:00 18 3 910 92 5.9 NW
25 - 18:00 18 3.4 910 92 4 W
25 - 19:00 17.9 3.6 910 92 2.7 N
25 - 20:00 17.4 3.7 910 92 5.9 O
25 - 21:00 17.3 3.8 910 92 9.9 SO
25 - 22:00 17.4 3.8 910 92 7.3 S
Apalmet utiliza cookies propias y de terceros para mejorar la usabilidad y la experiencia web. Política de cookies.